Mumbai, India

6:01 PM IST on June 26, 2017 (GMT +0530)
Chhatrapati Shivaji International

Weather History for VABB - January, 2013

Change the Weather History Date:

Wednesday, January 9, 2013

  Actual Average Record
Temperature  
Mean Temperature 76 °F -  
Max Temperature 93 °F 86 °F 95 °F (2002)
Min Temperature 60 °F 67 °F 60 °F (2013)
Cooling Degree Days 12    
Growing Degree Days 26 (Base 50)    
Moisture  
Dew Point 58 °F    
Average Humidity 53    
Maximum Humidity 79    
Minimum Humidity 18    
Precipitation  
Precipitation 0.00 in - - ()
Sea Level Pressure  
Sea Level Pressure 29.92 in    
Wind  
Wind Speed 3 mph ()    
Max Wind Speed 10 mph    
Max Gust Speed -    
Visibility 1.2 miles    
Events      
Averages and records for this station are not official NWS values.
T = Trace of Precipitation, MM = Missing Value Source: Averaged Metar Reports

Daily Weather History Graph

Daily Weather History Graph

Search for Another Location

Airport or City:

Trip Planner

Search our weather history database for the weather conditions in past years. The results will help you decide how hot, cold, wet, or windy it might be!

Date:

Astronomy

Jan. 09, 2013 Rise Set
Actual Time 7:14 AM IST 6:17 PM IST
Civil Twilight 6:50 AM IST 6:41 PM IST
Nautical Twilight 6:23 AM IST 7:08 PM IST
Astronomical Twilight 5:56 AM IST 7:34 PM IST
Moon 4:24 AM IST (1/9) 3:51 PM IST (1/9)
Length of Visible Light 11h 50m
Length of Day
11h 03m
Waning Crescent, 9% of the Moon is Illuminated
Jan 9
Waning Crescent
Jan 12
New
Jan 19
First Quarter
Jan 27
Full
Feb 3
Last Quarter

Hourly Weather History & Observations

Time (IST) Temp. Heat Index Dew Point Humidity Pressure Visibility Wind Dir Wind Speed Gust Speed Precip Events Conditions
12:10 AM 69.8 °F - 57.2 °F 64% 29.95 in 1.1 mi Calm Calm - N/A   Smoke
1:10 AM 69.8 °F - 57.2 °F 64% 29.92 in 0.7 mi Calm Calm - N/A   Haze
1:40 AM 69.8 °F - 59.0 °F 68% 29.92 in 0.7 mi Calm Calm - N/A   Haze
2:10 AM 68.0 °F - 59.0 °F 73% 29.92 in 0.9 mi Calm Calm - N/A   Haze
2:30 AM 62 °F - 57 °F 79% 29.93 in 1 mi Calm Calm - -   Haze
2:40 AM 68.0 °F - 59.0 °F 73% 29.92 in 0.8 mi Calm Calm - N/A   Haze
3:10 AM 68.0 °F - 60.8 °F 78% 29.89 in 0.7 mi SE 4.6 mph - N/A   Mist
3:40 AM 68.0 °F - 60.8 °F 78% 29.89 in 0.8 mi Calm Calm - N/A   Mist
4:10 AM 69.8 °F - 62.6 °F 78% 29.89 in 0.7 mi SE 3.5 mph - N/A   Mist
4:40 AM 68.0 °F - 60.8 °F 78% 29.89 in 0.8 mi Calm Calm - N/A   Mist
5:10 AM 68.0 °F - 59.0 °F 73% 29.89 in 0.7 mi SSE 3.5 mph - N/A   Mist
5:30 AM 66 °F - 58 °F 67% 29.93 in 1 mi SE 3.5 mph - -   Haze
5:40 AM 68.0 °F - 59.0 °F 73% 29.89 in 0.7 mi SSE 4.6 mph - N/A   Mist
6:10 AM 68.0 °F - 57.2 °F 68% 29.89 in 0.7 mi Calm Calm - N/A   Haze
6:40 AM 68.0 °F - 57.2 °F 68% 29.92 in 0.7 mi SE 3.5 mph - N/A   Haze
7:10 AM 68.0 °F - 57.2 °F 68% 29.95 in 0.6 mi Calm Calm - N/A   Haze
8:30 AM 64 °F - 59 °F 78% 29.97 in 1 mi Calm Calm - -   Haze
9:40 AM 78.8 °F - 55.4 °F 44% 30.01 in 1.4 mi ENE 10.4 mph - N/A   Smoke
10:10 AM 78.8 °F - 55.4 °F 44% 30.01 in 1.4 mi NE 9.2 mph - N/A   Smoke
10:40 AM 82.4 °F 82.0 °F 57.2 °F 42% 30.01 in 1.4 mi NE 8.1 mph - N/A   Smoke
11:10 AM 84.2 °F 83.5 °F 57.2 °F 40% 29.98 in 1.4 mi ENE 8.1 mph - N/A   Smoke
11:30 AM 85 °F - 57 °F 28% 29.98 in 1 mi NE 5.8 mph - -   Smoke
11:40 AM 84.2 °F 83.8 °F 59.0 °F 42% 29.98 in 1.4 mi ENE 8.1 mph - N/A   Smoke
12:10 PM 86.0 °F 85.4 °F 59.0 °F 40% 29.95 in 1.6 mi ENE 10.4 mph - N/A   Smoke
12:40 PM 87.8 °F 87.1 °F 59.0 °F 38% 29.95 in 1.6 mi East 9.2 mph - N/A   Smoke
1:10 PM 89.6 °F 88.9 °F 59.0 °F 36% 29.92 in 1.6 mi ENE 8.1 mph - N/A   Smoke
2:10 PM 89.6 °F - 50.0 °F 26% 29.89 in 2.5 mi Calm Calm - N/A   Smoke
2:30 PM 93 °F - 54 °F 18% 29.89 in 1 mi North 3.5 mph - -   Smoke
2:40 PM 91.4 °F - 51.8 °F 26% 29.89 in 2.5 mi West 4.6 mph - N/A   Smoke
3:10 PM 91.4 °F 89.9 °F 57.2 °F 31% 29.86 in 1.9 mi WNW 6.9 mph - N/A   Smoke
3:40 PM 89.6 °F 87.3 °F 53.6 °F 29% 29.86 in - West 10.4 mph - N/A   Smoke
4:10 PM 91.4 °F 89.1 °F 53.6 °F 28% 29.86 in - West 8.1 mph - N/A   Smoke
4:40 PM 89.6 °F 88.1 °F 57.2 °F 33% 29.86 in 2.2 mi WNW 6.9 mph - N/A   Smoke
5:10 PM 87.8 °F 87.1 °F 59.0 °F 38% 29.86 in - NW 8.1 mph - N/A   Smoke
5:30 PM 84 °F - 62 °F 38% 29.86 in 1 mi North 6.9 mph - -   Smoke
6:10 PM 82.4 °F 83.4 °F 62.6 °F 51% 29.86 in 1.6 mi NW 5.8 mph - N/A   Smoke
6:40 PM 82.4 °F 82.9 °F 60.8 °F 48% 29.89 in 1.5 mi NW 4.6 mph - N/A   Smoke
7:10 PM 82.4 °F 82.9 °F 60.8 °F 48% 29.89 in 1.5 mi NNW 6.9 mph - N/A   Smoke
7:40 PM 80.6 °F 81.5 °F 60.8 °F 51% 29.89 in 1.6 mi NNW 5.8 mph - N/A   Smoke
8:10 PM 80.6 °F 81.5 °F 60.8 °F 51% 29.92 in 1.4 mi NNW 6.9 mph - N/A   Smoke
8:30 PM 78 °F - 60 °F 45% 29.92 in 1 mi Calm Calm - -   Smoke
8:40 PM 80.6 °F 81.5 °F 60.8 °F 51% 29.92 in 1.3 mi NNW 4.6 mph - N/A   Smoke
9:10 PM 78.8 °F - 59.0 °F 51% 29.92 in 1.4 mi NNW 4.6 mph - N/A   Smoke
9:40 PM 78.8 °F - 59.0 °F 51% 29.92 in 1.4 mi NNW 3.5 mph - N/A   Smoke
10:10 PM 78.8 °F - 59.0 °F 51% 29.92 in 1.4 mi Calm Calm - N/A   Smoke
10:40 PM 78.8 °F - 57.2 °F 47% 29.95 in 1.6 mi Calm Calm - N/A   Smoke
11:10 PM 77.0 °F - 60.8 °F 57% 29.95 in 1.6 mi Calm Calm - N/A   Smoke
11:30 PM 71 °F - 60 °F 61% 29.94 in 1 mi Calm Calm - -   Haze
11:40 PM 75.2 °F - 60.8 °F 61% 29.95 in 1.6 mi Calm Calm - N/A   Smoke